TimeCST,TemperatureF,Dew PointF,Humidity,Sea Level PressureIn,VisibilityMPH,Wind Direction,Wind SpeedMPH,Gust SpeedMPH,PrecipitationIn,Events,Conditions,WindDirDegrees,DateUTC
12:14 AM,-18.4,-22.0,84,30.19,10.0,WSW,3.5,-,N/A,,Clear,240,2013-01-01 06:14:00
12:35 AM,-14.8,-18.4,84,30.19,10.0,WSW,3.5,-,N/A,,Clear,240,2013-01-01 06:35:00
12:52 AM,-14.8,-16.6,92,30.20,10.0,Calm,Calm,-,N/A,,Clear,0,2013-01-01 06:52:00
1:14 AM,-14.8,-18.4,84,30.20,10.0,Calm,Calm,-,N/A,,Clear,0,2013-01-01 07:14:00
1:35 AM,-14.8,-18.4,84,30.19,10.0,Calm,Calm,-,N/A,,Clear,0,2013-01-01 07:35:00
1:53 AM,-16.6,-20.2,84,30.18,10.0,Calm,Calm,-,N/A,,Clear,0,2013-01-01 07:53:00
2:14 AM,-16.6,-20.2,84,30.17,10.0,Calm,Calm,-,N/A,,Clear,0,2013-01-01 08:14:00
2:34 AM,-16.6,-20.2,84,30.17,10.0,Calm,Calm,-,N/A,,Clear,0,2013-01-01 08:34:00
2:53 AM,-18.4,-22.0,84,30.17,10.0,Calm,Calm,-,N/A,,Clear,0,2013-01-01 08:53:00
3:15 AM,-18.4,-22.0,84,30.18,10.0,Calm,Calm,-,N/A,,Clear,0,2013-01-01 09:15:00
3:35 AM,-18.4,-22.0,84,30.18,10.0,Calm,Calm,-,N/A,,Clear,0,2013-01-01 09:35:00
3:53 AM,-18.4,-23.8,76,30.17,10.0,Calm,Calm,-,N/A,,Clear,0,2013-01-01 09:53:00
4:14 AM,-18.4,-23.8,76,30.18,10.0,Calm,Calm,-,N/A,,Clear,0,2013-01-01 10:14:00
4:35 AM,-18.4,-23.8,76,30.17,10.0,Calm,Calm,-,N/A,,Clear,0,2013-01-01 10:35:00
4:53 AM,-18.4,-25.6,70,30.17,10.0,Calm,Calm,-,N/A,,Clear,0,2013-01-01 10:53:00
5:15 AM,-20.2,-25.6,76,30.17,10.0,Calm,Calm,-,N/A,,Clear,0,2013-01-01 11:15:00
5:35 AM,-20.2,-25.6,76,30.16,10.0,Calm,Calm,-,N/A,,Clear,0,2013-01-01 11:35:00
5:53 AM,-20.2,-25.6,76,30.16,10.0,Calm,Calm,-,N/A,,Scattered Clouds,0,2013-01-01 11:53:00
6:15 AM,-16.6,-20.2,84,30.15,5.0,Calm,Calm,-,N/A,Snow,Light Snow,0,2013-01-01 12:15:00
6:35 AM,-14.8,-18.4,84,30.15,5.0,Calm,Calm,-,N/A,Snow,Light Snow,0,2013-01-01 12:35:00
6:53 AM,-11.2,-16.6,77,30.14,5.0,Calm,Calm,-,N/A,Snow,Light Snow,0,2013-01-01 12:53:00
7:15 AM,-9.4,-14.8,77,30.13,5.0,Calm,Calm,-,N/A,Snow,Light Snow,0,2013-01-01 13:15:00
7:35 AM,-9.4,-13.0,84,30.12,7.0,Calm,Calm,-,N/A,Snow,Light Snow,0,2013-01-01 13:35:00
7:52 AM,-7.6,-11.2,84,30.12,10.0,Calm,Calm,-,N/A,Snow,Light Snow,0,2013-01-01 13:52:00
8:14 AM,-5.8,-9.4,84,30.12,10.0,Calm,Calm,-,N/A,Snow,Light Snow,0,2013-01-01 14:14:00
8:35 AM,-4.0,-7.6,85,30.12,10.0,Calm,Calm,-,N/A,Snow,Light Snow,0,2013-01-01 14:35:00
9:15 AM,-0.4,-4.0,85,30.11,10.0,Calm,Calm,-,N/A,Snow,Light Snow,0,2013-01-01 15:15:00
9:35 AM,1.4,-2.2,85,30.11,10.0,Calm,Calm,-,N/A,,Overcast,0,2013-01-01 15:35:00
9:53 AM,1.4,-0.4,92,30.10,10.0,SSW,3.5,-,N/A,Snow,Light Snow,200,2013-01-01 15:53:00
10:15 AM,5.0,1.4,85,30.10,10.0,SW,4.6,-,N/A,,Overcast,220,2013-01-01 16:15:00
10:34 AM,5.0,1.4,85,30.09,10.0,SSW,5.8,-,N/A,,Overcast,210,2013-01-01 16:34:00
10:53 AM,6.8,3.2,85,30.08,10.0,SSW,8.1,-,N/A,,Overcast,200,2013-01-01 16:53:00
11:15 AM,6.8,3.2,85,30.07,10.0,SSW,6.9,-,N/A,Snow,Light Snow,200,2013-01-01 17:15:00
11:34 AM,8.6,5.0,85,30.07,10.0,SSW,8.1,-,N/A,Snow,Light Snow,210,2013-01-01 17:34:00
11:53 AM,8.6,6.8,92,30.07,7.0,SSW,6.9,-,N/A,Snow,Light Snow,210,2013-01-01 17:53:00
12:15 PM,10.4,6.8,85,30.05,7.0,SSW,4.6,-,N/A,Snow,Light Snow,210,2013-01-01 18:15:00
12:35 PM,12.2,8.6,85,30.04,5.0,SW,4.6,-,N/A,Snow,Light Snow,220,2013-01-01 18:35:00
12:53 PM,12.2,10.4,92,30.04,5.0,WSW,6.9,-,N/A,,Overcast,240,2013-01-01 18:53:00
1:15 PM,12.2,10.4,92,30.03,4.0,WSW,5.8,-,N/A,,Overcast,240,2013-01-01 19:15:00
1:35 PM,12.2,10.4,92,30.02,3.0,WSW,9.2,-,N/A,,Overcast,240,2013-01-01 19:35:00
1:53 PM,12.2,10.4,92,30.02,4.0,SW,9.2,-,N/A,,Overcast,230,2013-01-01 19:53:00
2:15 PM,12.2,10.4,92,30.01,4.0,WSW,9.2,-,N/A,,Overcast,240,2013-01-01 20:15:00
2:35 PM,12.2,10.4,92,30.01,4.0,WSW,8.1,-,N/A,,Overcast,240,2013-01-01 20:35:00
2:53 PM,12.2,10.4,92,30.01,5.0,SW,6.9,-,N/A,,Overcast,230,2013-01-01 20:53:00
3:14 PM,14.0,10.4,86,30.01,7.0,WSW,6.9,-,N/A,,Overcast,240,2013-01-01 21:14:00
3:34 PM,14.0,10.4,86,30.00,7.0,SW,6.9,-,N/A,,Overcast,230,2013-01-01 21:34:00
3:53 PM,15.8,12.2,86,30.00,10.0,SW,4.6,-,N/A,,Overcast,230,2013-01-01 21:53:00
4:15 PM,15.8,12.2,86,30.00,10.0,WSW,5.8,-,N/A,,Overcast,240,2013-01-01 22:15:00
4:35 PM,15.8,12.2,86,30.00,10.0,WSW,6.9,-,N/A,,Overcast,240,2013-01-01 22:35:00
4:52 PM,15.8,12.2,86,30.00,10.0,SSW,3.5,-,N/A,,Overcast,210,2013-01-01 22:52:00
5:15 PM,15.8,12.2,86,29.99,10.0,SSW,5.8,-,N/A,,Overcast,200,2013-01-01 23:15:00
5:35 PM,15.8,12.2,86,29.99,10.0,SSW,4.6,-,N/A,,Overcast,200,2013-01-01 23:35:00
5:53 PM,15.8,12.2,86,29.98,10.0,South,6.9,-,N/A,,Overcast,190,2013-01-01 23:53:00
6:15 PM,15.8,12.2,86,29.97,10.0,SSW,6.9,-,N/A,,Overcast,200,2013-01-02 00:15:00
6:34 PM,15.8,12.2,86,29.96,10.0,SSW,9.2,-,N/A,,Overcast,200,2013-01-02 00:34:00
6:53 PM,15.8,12.2,86,29.95,10.0,SSW,6.9,-,N/A,,Overcast,200,2013-01-02 00:53:00
7:15 PM,15.8,14.0,93,29.95,10.0,SSW,5.8,-,N/A,,Overcast,200,2013-01-02 01:15:00
7:35 PM,15.8,14.0,93,29.94,10.0,SSW,5.8,-,N/A,,Overcast,210,2013-01-02 01:35:00
7:53 PM,17.6,14.0,86,29.94,10.0,SSW,6.9,-,N/A,,Overcast,210,2013-01-02 01:53:00
8:14 PM,17.6,15.8,93,29.93,10.0,SSW,4.6,-,N/A,,Overcast,200,2013-01-02 02:14:00
8:35 PM,17.6,15.8,93,29.92,10.0,SSW,3.5,-,N/A,,Overcast,200,2013-01-02 02:35:00
8:53 PM,17.6,15.8,93,29.92,7.0,SSW,3.5,-,N/A,,Overcast,200,2013-01-02 02:53:00
9:15 PM,17.6,15.8,93,29.91,10.0,SSW,5.8,-,N/A,,Overcast,200,2013-01-02 03:15:00
9:34 PM,17.6,15.8,93,29.91,10.0,SSW,5.8,-,N/A,,Overcast,210,2013-01-02 03:34:00
9:53 PM,17.6,15.8,93,29.91,10.0,SW,6.9,-,N/A,,Overcast,220,2013-01-02 03:53:00
10:15 PM,19.4,15.8,86,29.91,10.0,SW,11.5,-,N/A,,Overcast,230,2013-01-02 04:15:00
10:35 PM,17.6,15.8,93,29.90,10.0,SW,12.7,-,N/A,,Overcast,230,2013-01-02 04:35:00
10:53 PM,17.6,15.8,93,29.90,10.0,SW,10.4,16.1,N/A,,Overcast,230,2013-01-02 04:53:00
11:15 PM,17.6,15.8,93,29.89,10.0,SW,10.4,16.1,N/A,,Overcast,230,2013-01-02 05:15:00
11:34 PM,17.6,15.8,93,29.89,10.0,SW,11.5,-,N/A,,Overcast,230,2013-01-02 05:34:00
11:53 PM,17.6,15.8,93,29.89,10.0,SW,9.2,-,N/A,,Overcast,230,2013-01-02 05:53:00